Weather History for Los Angeles, CA

Change the Weather History Date:

Monday, February 11, 2013

  Actual Average Record
Temperature  
Mean Temperature 52 °F 57 °F  
Max Temperature 60 °F 64 °F 88 °F (1988)
Min Temperature 43 °F 50 °F 37 °F (1999)
Degree Days  
Heating Degree Days 13 8  
Month to date heating degree days 106 88  
Since 1 July heating degree days 728 792  
Cooling Degree Days 0 0  
Month to date cooling degree days 0 0  
Year to date cooling degree days 6 4  
Growing Degree Days 2 (Base 50)    
Moisture  
Dew Point 41 °F    
Average Humidity 58    
Maximum Humidity 83    
Minimum Humidity 32    
Precipitation  
Precipitation 0.00 in 0.12 in 1.98 in (2005)
Month to date precipitation 0.07 1.21  
Year to date precipitation 1.37 3.92  
Since 1 July precipitation 5.65 7.93  
Sea Level Pressure  
Sea Level Pressure 30.15 in    
Wind  
Wind Speed 6 mph (WSW)    
Max Wind Speed 17 mph    
Max Gust Speed 22 mph    
Visibility 10 miles    
Events      
T = Trace of Precipitation, MM = Missing Value Source: NWS Daily Summary

Daily Weather History Graph

Daily Weather History Graph

Search for Another Location

Airport:

Trip Planner

Search our weather history database for the weather conditions in past years. The results will help you decide how hot, cold, wet, or windy it might be!

Date:

Astronomy

Feb. 11, 2013 Rise Set
Actual Time 6:41 AM PST 5:34 PM PST
Civil Twilight 6:16 AM PST 5:59 PM PST
Nautical Twilight 5:46 AM PST 6:29 PM PST
Astronomical Twilight 5:17 AM PST 6:58 PM PST
Moon 7:15 AM PST (2/11) 7:27 PM PST (2/11)
Length of Visible Light 11h 43m
Length of Day
10h 52m
Waxing Crescent, 3% of the Moon is Illuminated
Feb 11
Waxing Crescent
Feb 17
First Quarter
Feb 25
Full
Mar 4
Last Quarter
Mar 11
New

Hourly Weather History & Observations

Time (PST) Temp. Dew Point Humidity Pressure Visibility Wind Dir Wind Speed Gust Speed Precip Events Conditions
12:53 AM 51.1 °F 42.1 °F 71% 30.09 in 10.0 mi Calm Calm - N/A   Mostly Cloudy
1:53 AM 51.8 °F 42.8 °F 71% 30.08 in 10.0 mi NNE 3.5 mph - N/A   Scattered Clouds
2:53 AM 48.9 °F 41.0 °F 74% 30.07 in 10.0 mi Calm Calm - N/A   Scattered Clouds
3:53 AM 48.0 °F 41.0 °F 77% 30.07 in 10.0 mi Calm Calm - N/A   Scattered Clouds
4:53 AM 45.0 °F 39.9 °F 82% 30.08 in 10.0 mi Calm Calm - N/A   Scattered Clouds
5:53 AM 45.0 °F 39.0 °F 80% 30.08 in 10.0 mi Calm Calm - N/A   Scattered Clouds
6:53 AM 46.4 °F 39.2 °F 76% 30.11 in 10.0 mi Calm Calm - N/A   Scattered Clouds
7:53 AM 48.2 °F 39.2 °F 71% 30.13 in 10.0 mi East 4.6 mph - N/A   Scattered Clouds
8:53 AM 51.8 °F 39.2 °F 62% 30.15 in 10.0 mi ESE 4.6 mph - N/A   Scattered Clouds
9:53 AM 54.0 °F 41.0 °F 62% 30.16 in 10.0 mi Calm Calm - N/A   Partly Cloudy
10:53 AM 57.0 °F 37.0 °F 47% 30.17 in 10.0 mi Calm Calm - N/A   Partly Cloudy
11:53 AM 60.1 °F 30.9 °F 33% 30.15 in 10.0 mi East 8.1 mph - N/A   Partly Cloudy
12:53 PM 60.1 °F 41.0 °F 49% 30.13 in 10.0 mi SW 11.5 mph 18.4 mph N/A   Partly Cloudy
1:53 PM 57.0 °F 43.0 °F 59% 30.13 in 10.0 mi WSW 15.0 mph - N/A   Partly Cloudy
2:53 PM 57.9 °F 44.1 °F 60% 30.13 in 10.0 mi WSW 15.0 mph - N/A   Partly Cloudy
3:53 PM 57.0 °F 41.0 °F 55% 30.14 in 10.0 mi West 12.7 mph - N/A   Scattered Clouds
4:53 PM 55.9 °F 42.1 °F 60% 30.16 in 10.0 mi West 13.8 mph - N/A   Scattered Clouds
5:53 PM 55.0 °F 39.9 °F 57% 30.17 in 10.0 mi West 11.5 mph - N/A   Partly Cloudy
6:53 PM 55.0 °F 39.9 °F 57% 30.18 in 10.0 mi WSW 10.4 mph - N/A   Clear
7:53 PM 54.0 °F 42.1 °F 64% 30.19 in 10.0 mi WSW 10.4 mph - N/A   Clear
8:53 PM 53.1 °F 44.1 °F 71% 30.21 in 10.0 mi WSW 8.1 mph - N/A   Clear
9:53 PM 54.0 °F 44.1 °F 69% 30.23 in 10.0 mi WSW 8.1 mph - N/A   Clear
10:53 PM 53.1 °F 43.0 °F 69% 30.23 in 10.0 mi WSW 3.5 mph - N/A   Clear
11:53 PM 50.0 °F 37.9 °F 63% 30.24 in 10.0 mi ENE 4.6 mph - N/A   Clear